Location: Jefferson
(30.9666°N, 81.7901°W)
Time: 21:44:39
(UTC+00:00)

ARIANE 6 FM1 Upper Stage - Pass Details

Date: 21 September 2024
Orbit: 563 x 595 km, 62.0° (Epoch: 13 October)

Event Time Altitude Azimuth Distance (km) Brightness Sun altitude
Rises 10:45:12 0° 314° (NW) 2,834 5.9 -7.3°
Reaches altitude 10° 10:47:46 10° 300° (WNW) 1,929 4.9 -6.7°
Maximum altitude 10:51:18 24° 246° (WSW) 1,232 3.9 -6.0°
Drops below altitude 10° 10:54:49 10° 192° (SSW) 1,918 5.2 -5.2°
Sets 10:57:23 0° 178° (S) 2,812 6.2 -4.7°
